K1VL Weather Reports


Display with metric or nautical units.
time (UTC)temp
F
wind
direction
speed
MPH
gust
MPH
rain 1hr
in
rain 24hr
in
rain mn
in
humidity
%
barometer
mb
20260906163516 59 270 3.0 9.0 0.00 0.05 0.02 89 1018.1
20260906163036 58 315 2.0 4.0 0.00 0.05 0.02 91 1018.2
20260906162516 58 315 1.0 4.0 0.00 0.05 0.02 90 1018.1
20260906162016 59 315 3.0 7.0 0.00 0.05 0.02 90 1018.1
20260906161536 59 315 4.0 8.0 0.00 0.05 0.02 89 1018.1
20260906161016 59 315 3.0 6.0 0.00 0.05 0.02 89 1018.2
20260906160536 59 315 4.0 10.0 0.00 0.05 0.02 89 1018.2
20260906160016 60 338 2.0 6.0 0.00 0.05 0.02 88 1018.2
20260906155516 60 315 3.0 7.0 0.00 0.05 0.02 87 1018.2
20260906155016 60 315 5.0 11.0 0.00 0.05 0.02 89 1018.3
20260906154516 60 315 5.0 9.0 0.00 0.05 0.02 89 1018.2
20260906154036 59 315 5.0 8.0 0.00 0.05 0.02 90 1018.3
20260906153516 59 315 5.0 9.0 0.00 0.05 0.02 90 1018.3
20260906153016 59 315 5.0 10.0 0.00 0.05 0.02 88 1018.2
20260906152636 60 315 3.0 7.0 0.00 0.05 0.02 89 1018.2
20260906152016 59 293 2.0 7.0 0.00 0.05 0.02 91 1018.2
20260906151516 58 315 2.0 6.0 0.00 0.05 0.02 91 1018.3
20260906151016 58 293 2.0 4.0 0.00 0.05 0.02 92 1018.3
20260906150516 58 338 2.0 5.0 0.00 0.05 0.02 91 1018.4
20260906150016 58 315 3.0 7.0 0.00 0.05 0.02 91 1018.3
20260906145536 58 315 3.0 7.0 0.00 0.05 0.02 92 1018.3
20260906145036 59 315 3.0 5.0 0.00 0.05 0.02 91 1018.3
20260906144516 59 315 1.0 5.0 0.00 0.05 0.02 89 1018.2
20260906144016 58 270 1.0 7.0 0.00 0.05 0.02 89 1018.1
20260906143516 58 0.0 3.0 0.00 0.05 0.02 91 1018.1
20260906143016 58 315 2.0 6.0 0.00 0.05 0.02 91 1018.1
20260906142516 59 315 2.0 7.0 0.00 0.05 0.02 91 1018.1
20260906142016 59 315 4.0 8.0 0.00 0.05 0.02 87 1018.1
20260906141516 60 135 2.0 6.0 0.00 0.05 0.02 83 1018.0
20260906141016 60 135 1.0 4.0 0.00 0.05 0.02 85 1018.0
20260906140516 60 90 1.0 4.0 0.00 0.05 0.02 85 1018.0
20260906140016 60 68 1.0 4.0 0.00 0.05 0.02 86 1018.0
20260906135536 59 0.0 2.0 0.00 0.05 0.02 88 1017.9
20260906135036 59 0.0 2.0 0.00 0.05 0.02 88 1017.9
20260906134536 59 68 1.0 5.0 0.00 0.05 0.02 89 1017.9
20260906134056 59 293 2.0 5.0 0.00 0.05 0.02 89 1017.8
20260906133516 58 293 1.0 4.0 0.00 0.05 0.02 91 1017.7
20260906133016 58 293 2.0 6.0 0.00 0.05 0.02 93 1017.7
20260906132516 58 315 1.0 3.0 0.00 0.05 0.02 93 1017.7
20260906132016 58 315 1.0 3.0 0.00 0.05 0.02 95 1017.7
20260906131516 57 0.0 2.0 0.00 0.05 0.02 96 1017.7
20260906131016 57 315 2.0 4.0 0.00 0.05 0.02 95 1017.8
20260906130536 57 315 1.0 3.0 0.00 0.05 0.02 95 1017.7
20260906130036 57 0.0 2.0 0.00 0.05 0.02 96 1017.7
20260906125516 56 315 1.0 3.0 0.00 0.05 0.02 99 1017.8
20260906125016 56 0.0 2.0 0.00 0.05 0.02 99 1017.8
20260906124516 55 0.0 0.0 0.00 0.05 0.02 99 1017.9
20260906124016 55 0.0 0.0 0.00 0.05 0.02 99 1017.8
20260906123516 55 0.0 1.0 0.00 0.05 0.02 99 1017.7
20260906123016 55 315 1.0 3.0 0.00 0.05 0.02 99 1017.6
20260906122516 55 315 1.0 3.0 0.00 0.05 0.02 99 1017.5
20260906122016 55 0.0 2.0 0.00 0.05 0.02 99 1017.6
20260906121516 55 0.0 3.0 0.00 0.05 0.02 99 1017.5
20260906121016 55 0.0 3.0 0.00 0.05 0.02 99 1017.5
20260906120536 55 315 1.0 3.0 0.00 0.05 0.02 99 1017.5
20260906120016 55 293 1.0 3.0 0.00 0.05 0.02 100 1017.5
20260906115516 55 0.0 1.0 0.00 0.05 0.02 100 1017.4
20260906115016 55 293 1.0 2.0 0.00 0.05 0.02 100 1017.3
20260906114536 55 0.0 2.0 0.00 0.05 0.02 100 1017.3
20260906114036 55 0.0 2.0 0.00 0.05 0.02 100 1017.2
20260906113516 54 0.0 0.0 0.00 0.05 0.02 100 1017.1
20260906113016 54 0.0 0.0 0.00 0.05 0.02 100 1017.1
20260906112516 54 0.0 1.0 0.00 0.05 0.02 100 1017.2
20260906112016 54 0.0 0.0 0.00 0.05 0.02 100 1017.2
20260906111516 54 0.0 0.0 0.00 0.05 0.02 100 1017.2
20260906111016 54 0.0 0.0 0.00 0.05 0.02 100 1017.0
20260906110016 54 0.0 0.0 0.00 0.05 0.02 100 1016.8
20260906105516 54 0.0 1.0 0.00 0.05 0.02 100 1016.8
20260906105016 54 0.0 0.0 0.00 0.05 0.02 100 1016.8
20260906104516 54 0.0 1.0 0.00 0.05 0.02 100 1016.6
20260906104036 54 0.0 1.0 0.00 0.05 0.02 100 1016.6
20260906103536 54 0.0 0.0 0.00 0.05 0.02 100 1016.6
20260906103016 54 0.0 0.0 0.00 0.05 0.02 100 1016.6
20260906102516 54 0.0 0.0 0.00 0.05 0.02 100 1016.6
20260906102016 54 0.0 0.0 0.00 0.05 0.02 100 1016.5
20260906101516 54 0.0 1.0 0.00 0.05 0.02 100 1016.5
20260906101016 54 0.0 1.0 0.00 0.05 0.02 100 1016.6
20260906100516 53 0.0 0.0 0.00 0.05 0.02 100 1016.5
20260906100056 53 0.0 0.0 0.00 0.05 0.02 99 1016.4
20260906095516 53 0.0 0.0 0.00 0.05 0.02 99 1016.3
20260906095036 54 0.0 0.0 0.00 0.05 0.02 99 1016.3
20260906094516 54 0.0 0.0 0.00 0.05 0.02 99 1016.3
20260906094016 54 0.0 0.0 0.00 0.05 0.02 99 1016.3
20260906093516 54 0.0 1.0 0.00 0.05 0.02 99 1016.3
20260906093016 54 0.0 1.0 0.00 0.05 0.02 99 1016.2
20260906092516 54 0.0 0.0 0.00 0.05 0.02 99 1016.2
20260906092036 54 0.0 0.0 0.00 0.05 0.02 99 1016.1
20260906091516 54 0.0 0.0 0.00 0.05 0.02 99 1016.0
20260906091016 54 0.0 0.0 0.00 0.05 0.02 99 1016.0
20260906090516 54 0.0 1.0 0.00 0.05 0.02 99 1015.8
20260906090016 54 0.0 0.0 0.00 0.05 0.02 99 1015.8
20260906085516 54 0.0 0.0 0.00 0.05 0.02 99 1015.8
20260906085036 54 0.0 0.0 0.00 0.05 0.02 99 1015.9
20260906084516 54 0.0 0.0 0.00 0.05 0.02 99 1015.9
20260906084016 54 0.0 0.0 0.00 0.05 0.02 99 1015.9
20260906083516 54 0.0 0.0 0.00 0.05 0.02 99 1015.9
20260906083016 54 0.0 0.0 0.00 0.05 0.02 99 1015.8
20260906082516 54 0.0 1.0 0.00 0.05 0.02 100 1015.9
20260906082016 54 0.0 0.0 0.01 0.05 0.02 100 1015.8
20260906081516 54 0.0 1.0 0.01 0.05 0.02 100 1015.8
20260906081016 54 0.0 0.0 0.01 0.05 0.02 100 1015.8
20260906080516 54 0.0 0.0 0.01 0.05 0.02 100 1015.8
20260906080016 54 0.0 0.0 0.01 0.05 0.02 100 1015.7
20260906075516 54 0.0 0.0 0.01 0.05 0.02 100 1015.7
20260906075016 54 0.0 0.0 0.01 0.05 0.02 100 1015.7
20260906074516 54 0.0 0.0 0.01 0.05 0.02 100 1015.7
20260906074016 54 0.0 0.0 0.01 0.05 0.02 100 1015.7
20260906073516 54 0.0 0.0 0.01 0.05 0.02 100 1015.7
20260906073016 54 0.0 0.0 0.01 0.05 0.02 100 1015.6
20260906072516 54 0.0 0.0 0.01 0.05 0.02 100 1015.6
20260906072056 54 0.0 0.0 0.00 0.04 0.01 100 1015.6
20260906071516 54 0.0 0.0 0.00 0.04 0.01 100 1015.6
20260906071016 54 0.0 0.0 0.00 0.04 0.01 100 1015.5
20260906070516 54 0.0 0.0 0.00 0.04 0.01 100 1015.6
20260906070016 54 0.0 0.0 0.00 0.04 0.01 100 1015.6
20260906065516 54 0.0 0.0 0.00 0.04 0.01 100 1015.6
20260906065016 54 0.0 0.0 0.00 0.04 0.01 100 1015.5
20260906064536 54 0.0 0.0 0.00 0.04 0.01 100 1015.5
20260906064016 54 0.0 0.0 0.00 0.04 0.01 99 1015.6
20260906063536 54 0.0 0.0 0.00 0.04 0.01 99 1015.6
20260906063016 54 0.0 0.0 0.00 0.04 0.01 99 1015.6
20260906062516 54 0.0 0.0 0.00 0.04 0.01 99 1015.6
20260906062016 54 0.0 0.0 0.00 0.04 0.01 99 1015.5
20260906061516 54 0.0 0.0 0.00 0.04 0.01 99 1015.5
20260906061016 54 0.0 0.0 0.00 0.04 0.01 99 1015.5
20260906060516 54 0.0 0.0 0.00 0.04 0.01 99 1015.5
20260906060036 54 0.0 0.0 0.00 0.04 0.01 99 1015.6
20260906055516 54 0.0 0.0 0.00 0.04 0.01 99 1015.6
20260906055016 54 0.0 0.0 0.00 0.04 0.01 99 1015.6
20260906054516 54 0.0 0.0 0.00 0.04 0.01 99 1015.7
20260906054016 54 0.0 0.0 0.00 0.04 0.01 99 1015.6
20260906053516 54 0.0 0.0 0.00 0.04 0.01 99 1015.6
20260906053016 54 0.0 0.0 0.00 0.04 0.01 99 1015.6
20260906052516 54 0.0 0.0 0.00 0.04 0.01 99 1015.7
20260906052016 54 0.0 0.0 0.00 0.04 0.01 99 1015.6
20260906051516 54 0.0 0.0 0.01 0.04 0.01 99 1015.7
20260906051036 54 0.0 0.0 0.01 0.04 0.01 99 1015.7
20260906050516 54 0.0 0.0 0.01 0.04 0.01 99 1015.7
20260906050016 54 0.0 0.0 0.01 0.04 0.01 99 1015.9
20260906045516 55 0.0 0.0 0.01 0.04 0.01 98 1015.9
20260906045016 55 0.0 1.0 0.01 0.04 0.01 98 1015.8
20260906044516 55 0.0 0.0 0.01 0.04 0.01 98 1015.7
20260906044016 55 0.0 0.0 0.01 0.04 0.01 98 1015.7
20260906043516 55 0.0 0.0 0.01 0.04 0.01 98 1015.8
20260906043016 55 0.0 0.0 0.01 0.04 0.01 98 1015.9
20260906042516 55 0.0 0.0 0.01 0.04 0.01 97 1016.0
20260906042016 55 0.0 0.0 0.01 0.04 0.01 97 1015.9
20260906041516 55 0.0 0.0 0.01 0.03 0.00 97 1015.9
20260906041016 55 0.0 0.0 0.01 0.03 0.00 96 1015.9
20260906040516 55 90 1.0 3.0 0.01 0.03 0.00 96 1015.9
20260906040016 55 225 1.0 3.0 0.01 0.03 0.03 96 1015.9
20260906035516 55 0.0 2.0 0.01 0.03 0.03 97 1015.9
20260906035016 55 0.0 2.0 0.01 0.03 0.03 97 1015.9
20260906034516 55 0.0 1.0 0.01 0.03 0.03 97 1015.9
20260906034016 55 293 1.0 2.0 0.01 0.03 0.03 97 1015.9
20260906033536 56 0.0 2.0 0.01 0.03 0.03 96 1015.8
20260906033033 56 0.0 1.0 0.01 0.03 0.03 95 1015.7
20260906032516 56 225 1.0 3.0 0.01 0.03 0.03 95 1015.6
20260906032016 56 180 1.0 3.0 0.01 0.03 0.03 95 1015.7
20260906031516 56 135 1.0 4.0 0.00 0.02 0.02 94 1015.6
20260906031036 57 158 1.0 4.0 0.00 0.02 0.02 93 1015.6
20260906030516 57 158 1.0 3.0 0.00 0.02 0.02 93 1015.6
20260906030016 57 135 2.0 5.0 0.00 0.02 0.02 93 1015.6
20260906025516 58 90 3.0 7.0 0.00 0.02 0.02 93 1015.6
20260906025016 58 90 2.0 5.0 0.00 0.02 0.02 94 1015.5
20260906024516 58 113 4.0 8.0 0.00 0.02 0.02 93 1015.4
20260906024016 58 113 3.0 9.0 0.00 0.02 0.02 94 1015.4
20260906023516 58 113 2.0 4.0 0.00 0.02 0.02 94 1015.3
20260906023036 58 0.0 1.0 0.00 0.02 0.02 94 1015.4
20260906022516 58 0.0 1.0 0.00 0.02 0.02 93 1015.3
20260906022036 58 203 1.0 2.0 0.00 0.02 0.02 93 1015.3
20260906021516 58 0.0 1.0 0.00 0.02 0.02 93 1015.3
20260906021016 59 203 1.0 4.0 0.00 0.02 0.02 92 1015.2
20260906020516 59 248 1.0 4.0 0.00 0.02 0.02 92 1015.0
20260906020016 59 90 2.0 6.0 0.00 0.02 0.02 92 1015.0
20260906015516 58 225 1.0 6.0 0.00 0.02 0.02 92 1015.1
20260906015016 59 68 1.0 6.0 0.00 0.02 0.02 93 1015.1
20260906014516 59 90 1.0 3.0 0.00 0.02 0.02 93 1015.0
20260906014036 59 113 2.0 5.0 0.00 0.02 0.02 94 1015.1
20260906013516 59 90 2.0 8.0 0.00 0.02 0.02 94 1015.1
20260906013036 59 158 1.0 3.0 0.00 0.02 0.02 94 1015.1
20260906012516 59 113 1.0 4.0 0.00 0.02 0.02 94 1015.0
20260906012016 59 315 1.0 6.0 0.00 0.02 0.02 94 1015.1
20260906011536 59 45 1.0 5.0 0.00 0.02 0.02 93 1015.1
20260906011016 59 68 2.0 7.0 0.00 0.02 0.02 93 1015.1
20260906010536 59 68 2.0 5.0 0.00 0.02 0.02 93 1015.0
20260906010016 60 90 2.0 6.0 0.00 0.02 0.02 93 1015.0
20260906005516 60 90 2.0 7.0 0.00 0.02 0.02 92 1015.0
20260906005016 60 68 2.0 10.0 0.00 0.02 0.02 92 1015.1
20260906004516 60 68 1.0 7.0 0.00 0.02 0.02 92 1015.2
20260906004016 60 315 2.0 5.0 0.00 0.02 0.02 92 1015.1
20260906003516 60 113 1.0 2.0 0.00 0.02 0.02 92 1015.0
20260906003016 60 293 1.0 4.0 0.00 0.02 0.02 93 1015.0
20260906002516 60 0.0 2.0 0.00 0.02 0.02 94 1015.0
20260906002036 60 68 2.0 6.0 0.00 0.02 0.02 96 1014.9
20260906001516 60 0.0 0.0 0.00 0.02 0.02 97 1014.9
20260906001016 60 0.0 0.0 0.00 0.02 0.02 97 1014.9
20260906000516 60 0.0 0.0 0.00 0.02 0.02 97 1014.9
20260906000016 60 0.0 0.0 0.00 0.02 0.02 97 1014.8
20260905235536 60 0.0 0.0 0.00 0.02 0.02 97 1014.9
20260905235016 60 0.0 0.0 0.00 0.02 0.02 97 1014.8
20260905234516 60 0.0 0.0 0.00 0.02 0.02 97 1014.7
20260905234016 60 0.0 0.0 0.00 0.02 0.02 96 1014.5
20260905233516 60 0.0 0.0 0.00 0.02 0.02 96 1014.4
20260905233016 60 0.0 0.0 0.00 0.02 0.02 96 1014.4
20260905232516 61 0.0 0.0 0.00 0.02 0.02 95 1014.5
20260905232016 61 0.0 1.0 0.00 0.02 0.02 95 1014.5
20260905231556 61 315 1.0 4.0 0.00 0.02 0.02 95 1014.4
20260905231016 61 293 1.0 3.0 0.00 0.02 0.02 95 1014.3
20260905230536 61 0.0 1.0 0.00 0.02 0.02 95 1014.3
20260905230016 61 315 2.0 5.0 0.00 0.02 0.02 95 1014.3
20260905225516 61 315 2.0 3.0 0.00 0.02 0.02 94 1014.2
20260905225016 62 0.0 2.0 0.00 0.02 0.02 94 1014.2
20260905224516 62 270 1.0 3.0 0.00 0.02 0.02 94 1014.2
20260905224016 62 0.0 1.0 0.00 0.02 0.02 94 1014.3
20260905223516 62 0.0 4.0 0.00 0.02 0.02 93 1014.4
20260905223016 62 315 2.0 4.0 0.00 0.02 0.02 93 1014.3
20260905222516 62 293 2.0 4.0 0.00 0.02 0.02 93 1014.1
20260905222016 62 315 2.0 5.0 0.00 0.02 0.02 93 1014.1
20260905221536 62 315 2.0 5.0 0.00 0.02 0.02 93 1014.2
20260905221016 63 315 2.0 4.0 0.00 0.02 0.02 93 1014.2
20260905220516 63 293 2.0 6.0 0.00 0.02 0.02 92 1014.1
20260905220036 63 315 3.0 7.0 0.00 0.02 0.02 92 1014.0
20260905215536 63 315 2.0 6.0 0.00 0.02 0.02 92 1014.1
20260905215016 63 293 2.0 4.0 0.00 0.02 0.02 92 1014.1
20260905214516 63 315 2.0 7.0 0.00 0.02 0.02 91 1014.1
20260905214016 63 293 1.0 3.0 0.00 0.02 0.02 91 1014.2
20260905213516 63 315 1.0 3.0 0.00 0.02 0.02 91 1014.1
20260905213036 63 293 1.0 4.0 0.00 0.02 0.02 91 1014.0
20260905212516 64 315 3.0 7.0 0.00 0.02 0.02 91 1014.0
20260905212017 64 315 3.0 7.0 0.00 0.02 0.02 90 1013.9
20260905211516 64 315 4.0 9.0 0.00 0.02 0.02 90 1013.8
20260905211016 64 315 3.0 7.0 0.00 0.02 0.02 90 1013.9
20260905210516 64 315 2.0 4.0 0.00 0.02 0.02 92 1013.8
20260905210016 64 315 3.0 6.0 0.00 0.02 0.02 92 1013.8
20260905205516 64 315 2.0 4.0 0.00 0.02 0.02 92 1013.7
20260905205016 64 315 3.0 8.0 0.00 0.02 0.02 91 1013.7
20260905204516 64 315 4.0 8.0 0.00 0.02 0.02 91 1013.7
20260905204016 64 315 3.0 7.0 0.00 0.02 0.02 91 1013.7
20260905203516 64 293 1.0 3.0 0.00 0.02 0.02 91 1013.7
20260905203016 64 315 2.0 5.0 0.00 0.02 0.02 90 1013.6
20260905202516 64 315 3.0 7.0 0.00 0.02 0.02 90 1013.7
20260905202016 64 315 2.0 5.0 0.00 0.02 0.02 91 1013.6
20260905201516 64 315 2.0 6.0 0.00 0.02 0.02 91 1013.6
20260905201016 64 315 3.0 8.0 0.00 0.02 0.02 91 1013.6
20260905200516 64 315 3.0 6.0 0.00 0.02 0.02 90 1013.5
20260905200016 64 315 2.0 7.0 0.00 0.02 0.02 90 1013.5
20260905195516 64 315 2.0 8.0 0.00 0.02 0.02 89 1013.4
20260905195016 65 315 2.0 6.0 0.00 0.02 0.02 88 1013.5
20260905194536 65 315 2.0 6.0 0.00 0.02 0.02 89 1013.5
20260905194036 65 315 3.0 7.0 0.00 0.02 0.02 88 1013.4
20260905193516 65 315 3.0 7.0 0.00 0.02 0.02 89 1013.4
20260905193016 65 315 3.0 7.0 0.00 0.02 0.02 88 1013.4
20260905192516 65 315 4.0 9.0 0.00 0.02 0.02 88 1013.4
20260905192016 65 293 2.0 7.0 0.00 0.02 0.02 91 1013.4
20260905191516 65 315 3.0 6.0 0.00 0.02 0.02 91 1013.4
20260905191016 64 315 4.0 8.0 0.00 0.02 0.02 92 1013.4
20260905190516 64 315 5.0 10.0 0.00 0.02 0.02 90 1013.4
20260905190016 64 315 3.0 7.0 0.00 0.02 0.02 90 1013.4
20260905185516 64 315 3.0 6.0 0.00 0.02 0.02 91 1013.4
20260905185016 64 315 3.0 8.0 0.00 0.02 0.02 92 1013.4
20260905184516 63 315 2.0 4.0 0.00 0.02 0.02 92 1013.4
20260905184016 63 315 3.0 5.0 0.00 0.02 0.02 93 1013.4
20260905183516 63 270 1.0 3.0 0.01 0.02 0.02 94 1013.4
20260905183016 63 293 2.0 5.0 0.01 0.02 0.02 94 1013.4
20260905182516 63 293 2.0 5.0 0.02 0.02 0.02 94 1013.4
20260905182017 64 315 1.0 4.0 0.02 0.02 0.02 93 1013.5
20260905181516 64 0.0 2.0 0.02 0.02 0.02 94 1013.4
20260905181016 63 293 1.0 5.0 0.02 0.02 0.02 95 1013.4
20260905180516 63 315 3.0 7.0 0.02 0.02 0.02 95 1013.4
20260905180016 62 315 2.0 4.0 0.02 0.02 0.02 95 1013.5
20260905175556 62 293 1.0 2.0 0.02 0.02 0.02 96 1013.5
20260905175016 62 270 1.0 2.0 0.02 0.02 0.02 96 1013.4
20260905174516 62 0.0 1.0 0.02 0.02 0.02 95 1013.4
20260905174036 62 0.0 2.0 0.02 0.02 0.02 94 1013.5
20260905173516 63 315 2.0 4.0 0.01 0.01 0.01 92 1013.5
20260905173036 64 315 2.0 10.0 0.01 0.01 0.01 91 1013.4
20260905172516 64 315 5.0 10.0 0.00 0.00 0.00 88 1013.4
20260905172016 65 338 3.0 5.0 0.00 0.00 0.00 87 1013.3
20260905171536 65 315 2.0 7.0 0.00 0.00 0.00 87 1013.3
20260905171016 65 315 3.0 9.0 0.00 0.00 0.00 89 1013.2
20260905170516 64 315 4.0 9.0 0.00 0.00 0.00 89 1013.3
20260905170016 64 315 2.0 6.0 0.00 0.00 0.00 91 1013.3
20260905165516 64 315 3.0 6.0 0.00 0.00 0.00 90 1013.4
20260905165016 64 270 1.0 6.0 0.00 0.00 0.00 91 1013.4
20260905164516 64 315 2.0 7.0 0.00 0.00 0.00 90 1013.4
20260905164016 64 338 2.0 7.0 0.00 0.00 0.00 88 1013.4